Plymouth, NH

10:56 AM EST on February 20, 2017 (GMT -0500)
Plymouth

Weather History for K1P1 - February, 2013

Change the Weather History Date:

Friday, February 15, 2013

  Actual Average (KLCI) Record (KLCI)
Temperature  
Mean Temperature 32 °F -  
Max Temperature 47 °F 31 °F 53 °F (2006)
Min Temperature 16 °F 10 °F -11 °F (2003)
Degree Days  
Heating Degree Days 34    
Moisture  
Dew Point 22 °F    
Average Humidity 72    
Maximum Humidity 96    
Minimum Humidity 36    
Precipitation  
Precipitation 0.00 in - - ()
Sea Level Pressure  
Sea Level Pressure 29.91 in    
Wind  
Wind Speed 1 mph (West)    
Max Wind Speed 12 mph    
Max Gust Speed 18 mph    
Visibility 10 miles    
Events Snow    
Averages and records for this station are not official NWS values.
T = Trace of Precipitation, MM = Missing Value Source: NWS Daily Summary

Daily Weather History Graph

Daily Weather History Graph

Search for Another Location

Airport or City:

Trip Planner

Search our weather history database for the weather conditions in past years. The results will help you decide how hot, cold, wet, or windy it might be!

Date:

Astronomy

Feb. 15, 2013 Rise Set
Actual Time 6:45 AM EST 5:17 PM EST
Civil Twilight 6:15 AM EST 5:46 PM EST
Nautical Twilight 5:42 AM EST 6:20 PM EST
Astronomical Twilight 5:09 AM EST 6:53 PM EST
Moon 9:07 AM EST (2/15) 11:29 PM EST (2/15)
Length of Visible Light 11h 30m
Length of Day
10h 31m
Waxing Crescent, 30% of the Moon is Illuminated
Feb 15
Waxing Crescent
Feb 17
First Quarter
Feb 25
Full
Mar 4
Last Quarter
Mar 11
New

Hourly Weather History & Observations

Time (EST) Temp. Windchill Dew Point Humidity Pressure Visibility Wind Dir Wind Speed Gust Speed Precip Events Conditions
12:15 AM 23.0 °F - 19.4 °F 86% 29.96 in 10.0 mi Calm Calm - N/A   Unknown
12:35 AM 21.7 °F - 18.9 °F 89% 29.95 in 10.0 mi Calm Calm - N/A   Unknown
12:55 AM 21.2 °F - 18.9 °F 91% 29.95 in 10.0 mi Calm Calm - N/A   Unknown
1:35 AM 20.5 °F - 18.7 °F 93% 29.95 in 10.0 mi Calm Calm - N/A   Unknown
1:55 AM 19.8 °F - 18.1 °F 93% 29.95 in 7.0 mi Calm Calm - N/A   Unknown
2:15 AM 18.9 °F - 17.6 °F 95% 29.95 in 7.0 mi Calm Calm - N/A   Unknown
2:35 AM 18.1 °F - 17.1 °F 96% 29.94 in 7.0 mi Calm Calm - N/A   Unknown
2:55 AM 16.7 °F - 15.6 °F 96% 29.94 in 7.0 mi Calm Calm - N/A   Unknown
3:15 AM 18.9 °F - 17.6 °F 95% 29.94 in 7.0 mi Calm Calm - N/A   Unknown
3:35 AM 19.2 °F - 17.8 °F 94% 29.94 in 10.0 mi Calm Calm - N/A   Unknown
3:55 AM 20.3 °F - 18.9 °F 94% 29.94 in 10.0 mi Calm Calm - N/A   Unknown
4:15 AM 20.3 °F - 18.5 °F 93% 29.93 in 10.0 mi Calm Calm - N/A   Unknown
4:35 AM 21.0 °F - 18.9 °F 91% 29.94 in 10.0 mi Calm Calm - N/A   Unknown
4:55 AM 22.1 °F - 19.9 °F 91% 29.93 in 10.0 mi Calm Calm - N/A   Unknown
5:15 AM 22.1 °F - 19.9 °F 91% 29.93 in 7.0 mi Calm Calm - N/A Snow Light Snow
5:35 AM 22.5 °F - 19.9 °F 90% 29.92 in 10.0 mi Calm Calm - N/A   Unknown
5:55 AM 22.3 °F - 19.4 °F 89% 29.93 in 10.0 mi Calm Calm - N/A   Unknown
6:15 AM 22.1 °F - 19.6 °F 90% 29.93 in 10.0 mi Calm Calm - N/A   Unknown
6:35 AM 22.1 °F - 19.8 °F 91% 29.93 in 10.0 mi Calm Calm - N/A   Unknown
6:55 AM 22.1 °F - 19.8 °F 91% 29.93 in 10.0 mi Calm Calm - N/A   Unknown
7:15 AM 22.6 °F - 19.8 °F 89% 29.92 in 10.0 mi Calm Calm - N/A   Unknown
7:35 AM 21.9 °F - 19.8 °F 91% 29.93 in 10.0 mi Calm Calm - N/A   Unknown
7:55 AM 23.0 °F - 19.9 °F 88% 29.93 in 10.0 mi Calm Calm - N/A   Unknown
8:15 AM 23.9 °F - 20.3 °F 86% 29.94 in 10.0 mi Calm Calm - N/A   Unknown
8:35 AM 24.8 °F - 20.3 °F 83% 29.94 in 10.0 mi Calm Calm - N/A   Unknown
9:15 AM 29.5 °F - 21.2 °F 71% 29.93 in 10.0 mi Calm Calm - N/A   Unknown
9:35 AM 30.6 °F - 21.2 °F 68% 29.93 in 10.0 mi Calm Calm - N/A   Unknown
10:15 AM 33.4 °F 30.4 °F 22.6 °F 65% 29.92 in 10.0 mi East 3.5 mph - N/A   Unknown
10:35 AM 34.5 °F 30.4 °F 22.3 °F 61% 29.92 in 10.0 mi East 4.6 mph - N/A   Unknown
10:55 AM 35.1 °F 32.2 °F 22.3 °F 60% 29.91 in 10.0 mi NE 3.5 mph - N/A   Unknown
11:15 AM 35.8 °F 31.9 °F 22.6 °F 59% 29.91 in 10.0 mi NE 4.6 mph - N/A   Unknown
11:35 AM 37.4 °F - 23.0 °F 56% 29.90 in 10.0 mi Calm Calm - N/A   Unknown
11:55 AM 39.2 °F - 23.4 °F 53% 29.89 in 10.0 mi Calm Calm - N/A   Unknown
12:15 PM 38.7 °F 36.3 °F 23.9 °F 55% 29.88 in 10.0 mi NE 3.5 mph - N/A   Unknown
12:35 PM 40.8 °F - 24.1 °F 51% 29.87 in 10.0 mi Calm Calm - N/A   Unknown
12:55 PM 41.2 °F 39.2 °F 24.8 °F 52% 29.86 in 10.0 mi East 3.5 mph - N/A   Unknown
1:15 PM 42.6 °F - 24.8 °F 49% 29.86 in 10.0 mi Calm Calm - N/A   Unknown
1:35 PM 45.1 °F 42.8 °F 24.4 °F 44% 29.85 in 10.0 mi SW 4.6 mph - N/A   Unknown
1:55 PM 45.5 °F 39.9 °F 23.9 °F 43% 29.85 in 10.0 mi West 11.5 mph 17.3 mph N/A   Unknown
2:15 PM 46.0 °F 43.9 °F 23.5 °F 41% 29.85 in 10.0 mi SW 4.6 mph - N/A   Unknown
2:35 PM 46.6 °F - 23.7 °F 41% 29.85 in 10.0 mi WSW 8.1 mph 18.4 mph N/A   Unknown
2:55 PM 46.8 °F - 23.7 °F 40% 29.85 in 10.0 mi Calm Calm - N/A   Unknown
3:15 PM 47.8 °F - 22.1 °F 36% 29.86 in 10.0 mi West 4.6 mph - N/A   Unknown
3:35 PM 46.8 °F - 21.2 °F 36% 29.86 in 10.0 mi West 5.8 mph 16.1 mph N/A   Unknown
3:55 PM 46.4 °F 42.9 °F 22.6 °F 39% 29.86 in 10.0 mi SW 6.9 mph - N/A   Unknown
4:15 PM 45.7 °F 42.0 °F 22.6 °F 40% 29.86 in 10.0 mi WSW 6.9 mph - N/A   Unknown
4:35 PM 45.3 °F 43.0 °F 22.3 °F 40% 29.87 in 10.0 mi West 4.6 mph - N/A   Unknown
4:55 PM 43.9 °F 40.5 °F 22.6 °F 43% 29.88 in 10.0 mi WSW 5.8 mph - N/A   Unknown
5:15 PM 43.3 °F 40.7 °F 21.6 °F 42% 29.89 in 10.0 mi WSW 4.6 mph - N/A   Unknown
5:35 PM 41.9 °F 39.0 °F 21.9 °F 45% 29.89 in 10.0 mi West 4.6 mph - N/A   Unknown
5:55 PM 40.8 °F 37.8 °F 23.5 °F 50% 29.90 in 10.0 mi West 4.6 mph - N/A   Unknown
6:15 PM 39.9 °F 36.7 °F 23.5 °F 52% 29.91 in 10.0 mi West 4.6 mph - N/A   Unknown
6:35 PM 38.8 °F 36.5 °F 23.7 °F 55% 29.91 in 10.0 mi West 3.5 mph - N/A   Unknown
6:55 PM 36.1 °F 33.5 °F 24.3 °F 62% 29.91 in 10.0 mi West 3.5 mph - N/A   Unknown
7:15 PM 32.7 °F 29.6 °F 25.9 °F 76% 29.92 in 10.0 mi WNW 3.5 mph - N/A   Unknown
7:35 PM 31.8 °F - 25.2 °F 76% 29.92 in 10.0 mi Calm Calm - N/A   Unknown
7:55 PM 30.7 °F 27.3 °F 25.2 °F 80% 29.92 in 10.0 mi West 3.5 mph - N/A   Unknown
8:15 PM 30.2 °F 26.7 °F 25.2 °F 82% 29.92 in 10.0 mi WNW 3.5 mph - N/A   Unknown
8:35 PM 29.8 °F 23.9 °F 24.1 °F 79% 29.92 in 10.0 mi West 5.8 mph - N/A   Unknown
8:55 PM 31.3 °F 27.9 °F 23.7 °F 74% 29.92 in 10.0 mi WNW 3.5 mph - N/A   Unknown
9:15 PM 29.3 °F - 23.9 °F 80% 29.92 in 10.0 mi Calm Calm - N/A   Unknown
9:35 PM 28.2 °F - 24.1 °F 84% 29.92 in 10.0 mi Calm Calm - N/A   Unknown
9:55 PM 28.8 °F - 23.7 °F 81% 29.92 in 10.0 mi Calm Calm - N/A   Unknown
10:15 PM 28.4 °F - 23.2 °F 81% 29.92 in 10.0 mi Calm Calm - N/A   Unknown
10:35 PM 26.1 °F - 22.8 °F 88% 29.91 in 10.0 mi Calm Calm - N/A   Unknown
10:55 PM 25.7 °F - 23.0 °F 89% 29.92 in 10.0 mi Calm Calm - N/A   Unknown
11:15 PM 24.8 °F - 22.5 °F 91% 29.92 in 10.0 mi Calm Calm - N/A   Unknown
11:35 PM 25.2 °F 20.9 °F 22.6 °F 90% 29.92 in 10.0 mi SSE 3.5 mph - N/A   Unknown
11:55 PM 26.1 °F - 23.0 °F 88% 29.92 in 10.0 mi Calm Calm - N/A   Unknown